Location: Estherville
(43.4020°N, 94.8330°W)
Time: 18:40:52
(UTC-06:00)

Envisat - Visible Passes

Search period start: 16 December 2018 00:00
Search period end: 26 December 2018 00:00
Orbit: 764 x 766 km, 98.2° (Epoch: 16 December)

Date Brightness Start Highest point End Pass type
(mag) Time Alt. Az. Time Alt. Az. Time Alt. Az.
16 Dec 3.0 18:42:18 10° SSE 18:47:14 55° ENE 18:52:12 10° N visible
16 Dec 5.4 20:23:06 10° SW 20:26:36 19° W 20:30:07 10° NW visible
17 Dec 5.8 06:51:09 10° NE 06:54:29 17° E 06:57:50 10° SE visible
17 Dec 3.8 18:06:33 10° ESE 18:10:44 27° ENE 18:14:56 10° N visible
17 Dec 4.2 19:44:49 10° SSW 19:49:34 40° W 19:54:20 10° NNW visible
18 Dec 4.6 17:32:05 10° E 17:34:26 13° ENE 17:36:48 10° NNE visible
18 Dec 2.9 19:07:39 10° SSE 19:12:44 87° WSW 19:17:50 10° NNW visible
18 Dec 6.1 20:51:58 10° W 20:52:29 10° W 20:52:59 10° W visible
19 Dec 5.2 07:15:50 10° NE 07:20:17 30° E 07:24:42 10° SSE visible
19 Dec 3.2 18:31:18 10° SE 18:36:05 44° ENE 18:40:54 10° N visible
19 Dec 5.1 20:11:17 10° SW 20:15:17 23° W 20:19:19 10° NW visible
20 Dec 6.0 06:40:38 10° ENE 06:43:10 14° E 06:45:42 10° ESE visible
20 Dec 4.1 17:55:51 10° ESE 17:59:39 22° ENE 18:03:28 10° NNE visible
20 Dec 3.8 19:33:24 10° S 19:38:19 50° W 19:43:16 10° NNW visible
21 Dec 4.8 17:22:19 10° ENE 17:23:25 11° ENE 17:24:30 10° NE visible
21 Dec 2.8 18:56:29 10° SSE 19:01:32 76° ENE 19:06:38 10° N visible
21 Dec 5.8 20:38:44 10° WSW 20:41:07 13° W 20:43:32 10° WNW visible
22 Dec 5.6 07:04:55 10° NE 07:09:00 24° E 07:13:03 10° SSE visible
22 Dec 3.5 18:20:23 10° SE 18:24:58 35° ENE 18:29:34 10° N visible
22 Dec 4.8 19:59:38 10° SSW 20:04:00 29° W 20:08:25 10° NW visible
23 Dec 6.4 06:30:49 10° ENE 06:31:50 11° E 06:32:49 10° E visible
23 Dec 4.3 17:45:15 10° ESE 17:48:35 18° ENE 17:51:54 10° NNE visible
23 Dec 3.3 19:22:04 10° S 19:27:06 63° W 19:32:09 10° NNW visible
24 Dec 2.9 18:45:23 10° SSE 18:50:22 60° ENE 18:55:23 10° N visible
24 Dec 5.6 20:26:33 10° SW 20:29:48 17° W 20:33:03 10° NW visible
25 Dec 5.8 06:54:06 10° NE 06:57:42 19° E 07:01:16 10° SE visible
25 Dec 3.7 18:09:32 10° SE 18:13:51 29° ENE 18:18:10 10° N visible
25 Dec 4.4 19:48:05 10° SSW 19:52:44 36° W 19:57:25 10° NNW visible
